星链-32479 (STARLINK-32479)

导读

STARLINK-32479是美国SpaceX公司星链(Starlink)卫星互联网星座的成员,于2024年11月30日发射入轨。作为星链大规模低轨星座部署中的一员,它依托SpaceX成熟的星链技术方案,为全球偏远、基础设施匮乏地区提供高速低延迟宽带互联网服务,助力星链实现全球无缝覆盖的通信目标,进一步扩大了星链星座的服务规模与覆盖能力。

基本信息
目录编号:
62148
目录名称:
STARLINK-32479
国际标识:
2024-224K
轨道中心:
EARTH
卫星名称:
星链-32479
卫星全名:
星链-32479 (STARLINK-32479)
卫星状态:
在轨 (已飞行651 天)
发射日期:
2024-11-30 UTC
国别 :
美国 (US)
星等 :
--
该卫星已列入 空间交会检测服务 Space Conjunction Data Service (SCDS) ,当前飞行风险评估等级: 无高风险
轨道信息
数据来源 国际轨道数据
星历时间: 2026-09-12T04:48:21+0800
6小时前
查看轨道信息
半长轴: 6861.157km
偏心率: 0.000133
轨道倾角: 43.003°
近地点辐角 260.241°
升交点赤经 186.658°
平近点角 99.829°
近地点: 482.107km
远地点: 483.933km
周期: 94.266分钟
每日圈数: 15.275899
详细信息
固有亮度:
5
最大亮度:
2.5
卫星平台:
Starlink V1.0
覆盖范围:
全球
运营商:
太空探索技术公司
运营商所在国:
美国
制造商(研发单位):
太空探索技术公司
制造商所在国:
美国
使用方式:
暂无
卫星简介
Starlink 计划是 SpaceX 推出的全球卫星互联网项目,通过发射低轨道卫星,为全球尤其是偏远地区提供高速、低延迟的互联网服务。自 2019 年起,Starlink 已部署数千颗卫星,旨在缩小全球数字鸿沟,推动互联网普及。该项目还为军事、航空等行业提供通信支持,带来广泛经济效益。
2D轨道图
3D轨道图
轨道高度分析图
轨道倾角分析图
轨道综合分析图
查看轨道综合分析图
交会数据列表
事件ID 空间交会对象 最接近时刻(TCA) 交会距离 交会风险概率(CRP) 交会风险指数(CRI) 操作
CDM_260912-225204-939006-214821
2026-09-12T
22:52:47+0000
2.386 km
极远距离
1.26849E-6 低风险 0.37
与全量物体交会距离演化趋势
与全量物体交会风险概率演化趋势